Flag for United Kingdom Weather past 2 weeks in Oldham, England, United Kingdom

Now
52 °F

Drizzle. Partly sunny.


Feels Like: 50 °F
Forecast: 45 / 56 °F
Wind: 6 mph from Southwest

Location: Manchester Airport

Current Time: Oct 24, 2014 at 10:03:04 AM

Latest Report: Oct 24, 2014 at 9:20 AM


Visibility: 4 mi

Pressure: 29.89 "Hg

Humidity: 100%

Dew point: 52 °F

Location of OldhamLocation

Historic Weather in Oldham — Graph

°F

Oldham temperature yesterday

Maximum temperature yesterday: 61 °F (at 2:50 PM)
Minimum temperature yesterday: 50 °F (at 12:20 AM)
Average temperature yesterday: 55 °F

Past Weeks' High & Low Weather Summary

 TemperatureHumidityPressure
High66 °F (Oct 18, 2:50 PM)100% (Oct 9, 9:20 PM)30.21 "Hg (Oct 9, 9:20 PM)
Low36 °F (Oct 12, 6:50 AM)58% (Oct 21, 1:20 PM)29.21 "Hg (Oct 9, 8:20 AM)
Average53 °F87%29.76 "Hg
* Reported Oct 9 8:20 AM — Oct 24 8:50 AM, Oldham, Weather by CustomWeather, © 2014

Note: Actual official high and low records may vary slightly from our data, if they occured in-between our weather recording intervals... More about our weather records

Advertising

Oldham weather history for previous 24 hours

 ConditionsComfort  
Time TempWeatherWind HumidityBarometerVisibility
8:50 AM
Oct 24
52 °FPartly cloudy.5 mph100%29.89 "Hg1 mi
8:20 AM52 °FPartly cloudy.5 mph100%29.89 "Hg1 mi
7:50 AM52 °FPartly cloudy.3 mph100%29.89 "Hg1 mi
7:20 AM52 °FPartly cloudy.3 mph100%29.89 "Hg2 mi
6:50 AM52 °FRain. Overcast.3 mph100%29.86 "Hg2 mi
6:20 AM54 °FRain. Overcast.No wind100%29.86 "Hg4 mi
5:50 AM54 °FRain. Low clouds.No wind100%29.89 "Hg4 mi
5:20 AM54 °FRain. Low clouds.2 mph100%29.89 "Hg4 mi
4:50 AM54 °FOvercast.5 mph100%29.89 "Hg5 mi
4:20 AM55 °FPassing clouds.9 mph88%29.86 "Hg5 mi
3:50 AM55 °FPassing clouds.9 mph88%29.86 "HgN/A
3:20 AM55 °FMostly cloudy.9 mph88%29.86 "HgN/A
2:50 AM55 °FPassing clouds.8 mph94%29.89 "HgN/A
2:20 AM55 °FPartly cloudy.9 mph94%29.89 "HgN/A
1:50 AM55 °FMostly cloudy.9 mph94%29.89 "HgN/A
1:20 AM55 °FPassing clouds.10 mph94%29.89 "HgN/A
12:50 AM55 °FPartly cloudy.10 mph94%29.89 "HgN/A
12:20 AM55 °FPassing clouds.12 mph100%29.89 "HgN/A
11:50 PM
Oct 23
55 °FPassing clouds.10 mph94%29.89 "HgN/A
11:20 PM55 °FPassing clouds.12 mph94%29.89 "HgN/A
10:50 PM55 °FPassing clouds.14 mph94%29.89 "HgN/A
10:20 PM57 °FPassing clouds.12 mph88%29.89 "HgN/A
9:50 PM55 °FPassing clouds.12 mph94%29.89 "HgN/A
9:20 PM57 °FPassing clouds.12 mph88%29.92 "HgN/A
8:50 PM57 °FPassing clouds.13 mph88%29.92 "HgN/A
8:20 PM57 °FPassing clouds.12 mph88%29.92 "HgN/A
7:50 PM57 °FPassing clouds.12 mph88%29.92 "HgN/A
7:20 PM57 °FPassing clouds.13 mph94%29.89 "HgN/A
6:50 PM57 °FBroken clouds.8 mph94%29.89 "HgN/A
6:20 PM57 °FSprinkles. Partly sunny.3 mph94%29.89 "HgN/A
5:50 PM59 °FSprinkles. Broken clouds.10 mph88%29.89 "Hg3 mi
5:20 PM59 °FPartly sunny.14 mph88%29.89 "HgN/A
4:50 PM59 °FPartly sunny.13 mph88%29.89 "HgN/A
4:20 PM59 °FPartly sunny.13 mph88%29.92 "HgN/A
3:50 PM59 °FPartly sunny.14 mph88%29.92 "HgN/A
3:20 PM59 °FPartly sunny.13 mph88%29.92 "HgN/A
2:50 PM61 °FPartly sunny.12 mph83%29.92 "HgN/A
2:20 PM59 °FBroken clouds.13 mph82%29.95 "HgN/A
1:50 PM59 °FPartly sunny.13 mph82%29.95 "HgN/A
1:20 PM59 °FPartly sunny.12 mph82%29.95 "HgN/A
12:50 PM57 °FPartly sunny.12 mph88%29.98 "HgN/A
12:20 PM57 °FPartly sunny.12 mph88%29.98 "HgN/A
11:50 AM55 °FPartly sunny.13 mph88%29.98 "HgN/A
11:20 AM55 °FPartly sunny.12 mph88%29.98 "HgN/A
10:50 AM55 °FPartly sunny.13 mph88%30.01 "HgN/A
10:20 AM54 °FPartly sunny.13 mph88%30.01 "HgN/A
Weather by CustomWeather, © 2014

See weather overviewHow to use our weather pages